Topeka, KS

11:10 AM CDT on July 21, 2017 (GMT -0500)
Billard Municipal

Weather History for KTOP - February, 2012

Change the Weather History Date:

Monday, February 13, 2012

  Actual Average Record
Temperature  
Mean Temperature 32 °F 34 °F  
Max Temperature 35 °F 44 °F 74 °F (1921)
Min Temperature 28 °F 23 °F -22 °F (1905)
Degree Days  
Heating Degree Days 33 31  
Month to date heating degree days 375 427  
Since 1 July heating degree days 3037 3537  
Cooling Degree Days 0 0  
Month to date cooling degree days 0 0  
Year to date cooling degree days 0 0  
Moisture  
Dew Point 30 °F    
Average Humidity 66    
Maximum Humidity 100    
Minimum Humidity 32    
Precipitation  
Precipitation 0.20 in 0.05 in 0.88 in (1911)
Month to date precipitation 1.56 0.57  
Year to date precipitation 1.58 1.43  
Snow  
Snow 1.80 in 0.20 in 6.10 in (1978)
Month to date snowfall 1.8 2.4  
Year to date snowfall 1.9 7.3  
Since 1 July snowfall 2.0 13.8  
Snow Depth 1.00 in    
Sea Level Pressure  
Sea Level Pressure 29.90 in    
Wind  
Wind Speed 9 mph (South)    
Max Wind Speed 22 mph    
Max Gust Speed 30 mph    
Visibility 3 miles    
Events Rain , Snow    
T = Trace of Precipitation, MM = Missing Value Source: NWS Daily Summary

Daily Weather History Graph

Daily Weather History Graph

Search for Another Location

Airport or City:

Trip Planner

Search our weather history database for the weather conditions in past years. The results will help you decide how hot, cold, wet, or windy it might be!

Date:

Astronomy

Feb. 13, 2012 Rise Set
Actual Time 7:16 AM CST 5:56 PM CST
Civil Twilight 6:49 AM CST 6:24 PM CST
Nautical Twilight 6:18 AM CST 6:55 PM CST
Astronomical Twilight 5:47 AM CST 7:26 PM CST
Moon No Moon Rise 10:20 AM CST (2/13)
Length of Visible Light 11h 35m
Length of Day
10h 39m
Waning Gibbous, 61% of the Moon is Illuminated
Feb 13
Waning Gibbous
Feb 14
Last Quarter
Feb 21
New
Feb 29
First Quarter
Mar 8
Full

Hourly Weather History & Observations

Time (CST) Temp. Windchill Dew Point Humidity Pressure Visibility Wind Dir Wind Speed Gust Speed Precip Events Conditions
12:53 AM 32.0 °F 20.8 °F 18.0 °F 56% 30.13 in 7.0 mi South 17.3 mph 24.2 mph 0.00 in Snow Light Snow
12:59 AM 30.2 °F 18.9 °F 21.2 °F 69% 30.10 in 2.5 mi SSW 16.1 mph 24.2 mph 0.00 in Snow Light Snow
1:07 AM 28.4 °F 19.7 °F 24.8 °F 86% 30.10 in 1.0 mi South 9.2 mph 23.0 mph 0.00 in Snow Light Snow
1:15 AM 28.4 °F 21.2 °F 26.6 °F 93% 30.09 in 0.8 mi South 6.9 mph 17.3 mph 0.01 in Snow Light Snow
1:23 AM 28.4 °F 22.2 °F 26.6 °F 93% 30.09 in 0.8 mi South 5.8 mph - 0.02 in Snow Light Snow
1:44 AM 28.4 °F 20.4 °F 26.6 °F 93% 30.09 in 1.0 mi South 8.1 mph - 0.04 in Snow Light Snow
1:53 AM 28.0 °F 18.6 °F 26.1 °F 92% 30.11 in 1.0 mi South 10.4 mph - 0.05 in Snow Light Snow
2:42 AM 28.4 °F 19.1 °F 26.6 °F 93% 30.07 in 0.8 mi South 10.4 mph - 0.04 in Snow Light Snow
2:49 AM 28.4 °F 18.0 °F 26.6 °F 93% 30.06 in 1.0 mi SSE 12.7 mph - 0.05 in Snow Light Snow
2:53 AM 28.0 °F 17.5 °F 26.1 °F 92% 30.08 in 1.2 mi SSE 12.7 mph - 0.05 in Snow Light Snow
3:24 AM 28.4 °F 17.5 °F 26.6 °F 93% 30.03 in 2.0 mi SSE 13.8 mph - 0.01 in Snow Light Snow
3:35 AM 28.4 °F 18.0 °F 26.6 °F 93% 30.02 in 3.0 mi SSE 12.7 mph - 0.01 in Snow Light Snow
3:48 AM 28.4 °F 17.0 °F 26.6 °F 93% 30.01 in 2.5 mi SSE 15.0 mph 20.7 mph 0.01 in Snow Light Snow
3:53 AM 28.9 °F 17.7 °F 26.1 °F 89% 30.04 in 2.5 mi SSE 15.0 mph 20.7 mph 0.01 in Snow Light Snow
4:13 AM 28.4 °F 18.0 °F 26.6 °F 93% 30.01 in 1.2 mi SSE 12.7 mph 19.6 mph 0.00 in Snow Light Snow
4:25 AM 28.4 °F 18.5 °F 26.6 °F 93% 30.00 in 0.8 mi SSE 11.5 mph - 0.01 in Snow Light Snow
4:53 AM 28.9 °F 19.2 °F 27.0 °F 92% 30.01 in 0.8 mi SSE 11.5 mph - 0.03 in Snow Light Snow
5:05 AM 28.4 °F 17.5 °F 26.6 °F 93% 29.98 in 1.0 mi SE 13.8 mph - 0.01 in Snow Light Snow
5:53 AM 30.0 °F 19.5 °F 28.0 °F 92% 29.97 in 1.5 mi SSE 13.8 mph - 0.03 in Snow Light Snow
6:23 AM 30.2 °F 20.2 °F 28.4 °F 93% 29.93 in 2.0 mi SSE 12.7 mph 20.7 mph 0.00 in Snow Light Snow
6:27 AM 30.2 °F 19.8 °F 28.4 °F 93% 29.93 in 3.0 mi SSE 13.8 mph 20.7 mph 0.00 in Snow Light Snow
6:37 AM 30.2 °F 21.3 °F 28.4 °F 93% 29.93 in 7.0 mi SSE 10.4 mph - 0.00 in   Overcast
6:53 AM 30.9 °F 22.2 °F 28.0 °F 89% 29.96 in 10.0 mi South 10.4 mph - 0.00 in   Overcast
7:53 AM 32.0 °F 23.0 °F 28.0 °F 85% 29.94 in 10.0 mi South 11.5 mph - N/A   Overcast
8:33 AM 32.0 °F 23.0 °F 28.4 °F 87% 29.91 in 1.5 mi SSE 11.5 mph - 0.00 in Snow Light Snow
8:43 AM 30.2 °F 21.9 °F 28.4 °F 93% 29.91 in 1.2 mi SSE 9.2 mph - 0.00 in Snow Light Snow
8:53 AM 32.0 °F 23.6 °F 30.0 °F 92% 29.93 in 2.5 mi SSE 10.4 mph - 0.00 in   Overcast
8:55 AM 32.0 °F 23.0 °F 30.2 °F 93% 29.90 in 2.5 mi SSE 11.5 mph - N/A   Overcast
9:23 AM 32.0 °F 23.6 °F 30.2 °F 93% 29.90 in 1.8 mi South 10.4 mph - N/A   Overcast
9:32 AM 32.0 °F 22.1 °F 30.2 °F 93% 29.90 in 2.0 mi South 13.8 mph - N/A   Overcast
9:53 AM 32.0 °F 22.5 °F 30.0 °F 92% 29.92 in 2.0 mi South 12.7 mph - 0.00 in Rain Light Freezing Rain
10:31 AM 33.8 °F 25.8 °F 30.2 °F 87% 29.87 in 3.0 mi South 10.4 mph 18.4 mph 0.00 in Rain Light Freezing Rain
10:48 AM 33.8 °F 25.8 °F 30.2 °F 87% 29.87 in 2.0 mi South 10.4 mph 19.6 mph 0.00 in Rain Light Freezing Rain
10:53 AM 33.1 °F 24.4 °F 30.9 °F 92% 29.88 in 2.5 mi South 11.5 mph - 0.00 in Rain Light Freezing Rain
11:02 AM 33.8 °F 24.8 °F 30.2 °F 87% 29.86 in 4.0 mi South 12.7 mph - 0.00 in Rain Light Freezing Rain
11:19 AM 33.8 °F 25.8 °F 30.2 °F 87% 29.85 in 6.0 mi South 10.4 mph - 0.00 in   Overcast
11:53 AM 33.1 °F 24.4 °F 30.9 °F 92% 29.85 in 5.0 mi South 11.5 mph - 0.00 in   Overcast
12:22 PM 33.8 °F 25.8 °F 30.2 °F 87% 29.81 in 2.5 mi South 10.4 mph - N/A   Overcast
12:53 PM 33.1 °F 24.9 °F 32.0 °F 96% 29.82 in 2.5 mi South 10.4 mph - N/A   Overcast
1:53 PM 34.0 °F 27.2 °F 32.0 °F 92% 29.80 in 2.0 mi South 8.1 mph - N/A   Overcast
2:53 PM 34.0 °F 26.6 °F 32.0 °F 92% 29.78 in 2.0 mi South 9.2 mph - N/A   Overcast
3:03 PM 33.8 °F 27.0 °F 32.0 °F 93% 29.76 in 1.8 mi South 8.1 mph - N/A   Overcast
3:13 PM 33.8 °F 26.4 °F 33.8 °F 100% 29.76 in 2.0 mi South 9.2 mph - N/A   Overcast
3:53 PM 34.0 °F 27.2 °F 33.1 °F 96% 29.77 in 2.5 mi South 8.1 mph - N/A   Overcast
4:18 PM 33.8 °F 26.4 °F 33.8 °F 100% 29.74 in 3.0 mi South 9.2 mph - N/A   Overcast
4:39 PM 33.8 °F 27.7 °F 33.8 °F 100% 29.74 in 2.5 mi South 6.9 mph - N/A   Overcast
4:53 PM 34.0 °F 27.2 °F 33.1 °F 96% 29.76 in 3.0 mi South 8.1 mph - N/A   Overcast
5:53 PM 34.0 °F 28.0 °F 33.1 °F 96% 29.77 in 5.0 mi South 6.9 mph - N/A   Overcast
6:53 PM 34.0 °F 29.8 °F 33.1 °F 96% 29.78 in 4.0 mi South 4.6 mph - 0.01 in   Overcast
7:27 PM 33.8 °F - 33.8 °F 100% 29.77 in 1.8 mi Calm Calm - 0.01 in Snow Light Snow
7:36 PM 33.8 °F - 33.8 °F 100% 29.77 in 3.0 mi Calm Calm - 0.02 in Snow Light Snow
7:53 PM 34.0 °F - 33.1 °F 96% 29.80 in 5.0 mi Calm Calm - 0.02 in Snow Light Snow
8:15 PM 33.8 °F 28.6 °F 33.8 °F 100% 29.78 in 6.0 mi South 5.8 mph - 0.00 in   Overcast
8:38 PM 33.8 °F 29.6 °F 33.8 °F 100% 29.78 in 7.0 mi SSW 4.6 mph - 0.00 in   Overcast
8:53 PM 34.0 °F 31.0 °F 33.1 °F 96% 29.80 in 6.0 mi SSW 3.5 mph - 0.00 in   Overcast
9:27 PM 33.8 °F - 33.8 °F 100% 29.79 in 6.0 mi Calm Calm - N/A   Overcast
9:53 PM 34.0 °F 31.0 °F 33.1 °F 96% 29.82 in 8.0 mi West 3.5 mph - N/A   Overcast
10:53 PM 34.0 °F 28.8 °F 33.1 °F 96% 29.82 in 7.0 mi West 5.8 mph - N/A   Overcast
11:12 PM 33.8 °F 30.8 °F 33.8 °F 100% 29.80 in 7.0 mi West 3.5 mph - N/A   Overcast
11:22 PM 33.8 °F 29.6 °F 33.8 °F 100% 29.81 in 7.0 mi West 4.6 mph - N/A   Overcast
11:35 PM 33.8 °F 29.6 °F 33.8 °F 100% 29.81 in 7.0 mi West 4.6 mph - N/A   Overcast
11:53 PM 34.0 °F 28.8 °F 33.1 °F 96% 29.83 in 7.0 mi West 5.8 mph - N/A   Overcast